Weather in Mahmutlar

Turkey     36°30′00″N   32°07′49″E
temp.,
°C
wind,
m/s
gust,
m/s
humid.,
%
clouds,
%
prec.,
mm/h
press.,
hPa
HPBL,
m
17 april, sat
sat1700:00+15ene223699 0.0 101711
03:00+16ene2233100 0.0 101611
06:00+16ene2233100 0.0 101611
09:00+20e1239100 0.0 101795
12:00+23ese2229100 0.0 1018480
15:00+24wsw4332100 0.0 1016559
18:00+21w2248100 0.0 1018195
21:00+19ne3342100 0.0 101827
18 april, sun
sun1800:00+20ne2228100 0.0 101814
03:00+18ne113761 0.0 101711
06:00+19ne323689 0.0 101819
09:00+23ene2236100 0.0 101839
12:00+26sw2231100 0.0 1018699
15:00+26sw222951 0.0 1017635
18:00+24ssw1140100 0.0 101771
21:00+21ne1133100 0.0 101711
19 april, mon
mon1900:00+22ene3326100 0.0 101623
03:00+21nnw1130100 0.0 101511
06:00+21ene4329100 0.0 101328
09:00+25e1232100 0.0 101393
12:00+29ssw1421100 0.0 1012763
15:00+28sw1425100 0.0 1010749
18:00+26w0138100 0.0 100813
21:00+21wsw2247100 0.0 100840
20 april, tue
tue2000:00+17wsw2371100 0.0 1009176
03:00+17s2265100 0.0 100930
06:00+15s2289100 0.0 101074
09:00+17s34510 0.0 1011509
12:00+20ssw43440 0.0 1011734
15:00+18sw436620 0.0 1012870
18:00+14ssw328255 0.0 1013447
21:00+12se22800 0.0 101442
21 april, wed
wed2100:00+11ese22590 0.0 101418
03:00+11ene11380 0.0 101310
06:00+11ene11430 0.0 101410
09:00+15sw21475 0.0 1016386
12:00+18sw33530 0.0 1016922
15:00+19sw32534 0.0 1016923
18:00+17sw21665 0.0 1017442
21:00+13ene11895 0.0 101810